Time,TemperatureF,DewpointF,PressureIn,WindDirection,WindDirectionDegrees,WindSpeedMPH,WindSpeedGustMPH,Humidity,HourlyPrecipIn,Conditions,Clouds,dailyrainin,SoftwareType,DateUTC
2013-09-01 00:00:00,66.2,46.0,24.20,North,0,0.0,-999.0,48,0.00,,,0.00,,2013-09-01 07:00:00,
2013-09-01 01:00:00,65.2,46.5,24.20,North,0,0.0,-999.0,51,0.00,,,0.00,,2013-09-01 08:00:00,
2013-09-01 02:00:00,65.0,45.9,24.19,North,0,0.0,-999.0,50,0.00,,,0.00,,2013-09-01 09:00:00,
2013-09-01 03:00:00,65.0,45.9,24.18,North,0,0.0,-999.0,50,0.00,,,0.00,,2013-09-01 10:00:00,
2013-09-01 04:00:00,63.7,45.7,24.18,North,0,0.0,-999.0,52,0.00,,,0.00,,2013-09-01 11:00:00,
2013-09-01 05:00:00,63.7,45.7,24.18,North,0,0.0,-999.0,52,0.00,,,0.00,,2013-09-01 12:00:00,
2013-09-01 06:00:00,63.9,45.8,24.18,North,0,0.0,-999.0,52,0.00,,,0.00,,2013-09-01 13:00:00,
2013-09-01 07:05:00,63.7,45.7,24.18,North,0,0.0,-999.0,52,0.00,,,0.00,,2013-09-01 14:05:00,
2013-09-01 08:05:00,63.7,46.2,24.19,North,0,0.0,-999.0,53,0.00,,,0.00,,2013-09-01 15:05:00,
2013-09-01 09:05:00,67.5,47.1,0.00,North,0,0.0,-999.0,48,0.00,,,0.00,,2013-09-01 16:05:00,
2013-09-01 10:05:00,71.8,48.6,0.00,North,0,0.0,-999.0,44,0.00,,,0.00,,2013-09-01 17:05:00,
2013-09-01 11:05:00,75.2,50.6,0.00,North,0,0.0,-999.0,42,0.00,,,0.00,,2013-09-01 18:05:00,
2013-09-01 12:00:00,77.0,50.9,0.00,North,0,0.0,-999.0,40,0.00,,,0.00,,2013-09-01 19:00:00,
2013-09-01 13:05:00,77.8,52.8,0.00,North,0,0.0,-999.0,42,0.00,,,0.00,,2013-09-01 20:05:00,
2013-09-01 14:05:00,78.1,53.1,0.00,North,0,0.0,-999.0,42,0.00,,,0.00,,2013-09-01 21:05:00,
2013-09-01 15:05:00,72.5,52.2,0.00,North,0,0.0,-999.0,49,0.00,,,0.00,,2013-09-01 22:05:00,
2013-09-01 16:05:00,72.4,50.9,0.00,North,0,0.0,-999.0,47,0.00,,,0.00,,2013-09-01 23:05:00,
2013-09-01 17:05:00,75.6,50.9,0.00,North,0,0.0,-999.0,42,0.00,,,0.00,,2013-09-02 00:05:00,
2013-09-01 18:00:00,72.2,53.0,24.15,North,0,0.0,-999.0,51,0.00,,,0.00,,2013-09-02 01:00:00,
2013-09-01 19:00:00,69.1,50.8,24.15,North,0,0.0,-999.0,52,0.00,,,0.00,,2013-09-02 02:00:00,
2013-09-01 20:00:00,67.0,51.7,24.16,North,0,0.0,-999.0,58,0.00,,,0.00,,2013-09-02 03:00:00,
2013-09-01 21:00:00,65.9,52.1,24.18,North,0,0.0,-999.0,61,0.00,,,0.00,,2013-09-02 04:00:00,
2013-09-01 22:00:00,65.5,51.3,24.19,North,0,0.0,-999.0,60,0.00,,,0.00,,2013-09-02 05:00:00,
2013-09-01 23:00:00,65.2,51.8,24.19,North,0,0.0,-999.0,62,0.00,,,0.00,,2013-09-02 06:00:00,